Погода в Раквере

Эстония     59°20′44″N   26°21′42″E
темп.,
°C
ветер,
м/с
пор.,
м/с
влажн.,
%
обл.,
%
осадки,
мм/ч
давл.,
гПа
погр.,
м
17 апреля, сб
сб1700:00+4св41272100 0.0 1028297
03:00+3св4108567 0.0 1028228
06:00+2св3109070 0.0 1028221
09:00+6всв497266 0.0 1028329
12:00+10всв585777 0.0 1028601
15:00+11св585158 0.0 1028676
18:00+10св5105578 0.0 1028438
21:00+6св4136715 0.0 1028310
18 апреля, вс
вс1800:00+5св3107748 0.0 1029236
03:00+3св398722 0.0 1029177
06:00+2св39935 0.0 1029177
09:00+7всв48755 0.0 1029345
12:00+11всв46562 0.0 1029876
15:00+11св57530 0.0 1029948
18:00+10св59550 0.0 1028609
21:00+6св412702 0.0 1029331
19 апреля, пн
пн1900:00+4св39795 0.0 1029198
03:00+3св26875 0.0 1029119
06:00+3всв25925 0.0 102988
09:00+7всв37715 0.0 1029366
12:00+11всв465565 0.0 10281161
15:00+11св555866 0.0 1028997
18:00+10св47565 0.0 1027628
21:00+5св310665 0.0 1027267
20 апреля, вт
вт2000:00+3всв28795 0.0 1026158
03:00+3вюв25855 0.0 102583
06:00+3вюв258957 0.0 102391
09:00+7в367060 0.0 1022496
12:00+8вюв4561100 0.1 10211174
15:00+8вюв3463100 0.4 10191132
18:00+8вюв3469100 0.3 10181116
21:00+4вюв118523 0.3 101617
21 апреля, ср
ср2100:00+2ссв25925 0.0 101396
03:00+1с3787100 0.0 1010138
06:00+1с3790100 0.0 1007182
09:00+4с4891100 0.0 1004575
12:00+2с3798100 0.6 1002393
15:00+2сз2599100 1.8 1001327
18:00+3зсз2598100 0.5 1001302
21:00+2вюв1196100 0.5 100013